Le nostre stazioni meteo in Italia

Pubblicità
Il mio iltempo24.it
Termoli, Italia (16232): Temperatura & dewpoint: 10.10.2018 04:00:00 - 16.10.2018 04:00:00 (CEST)Termoli, Italia (16232): velocità del vento: 10.10.2018 04:00:00 - 16.10.2018 04:00:00 (CEST)Termoli, Italia (16232): direzione del vento: 10.10.2018 04:00:00 - 16.10.2018 04:00:00 (CEST)Termoli, Italia (16232): reduced air pressure: 10.10.2018 04:00:00 - 16.10.2018 04:00:00 (CEST)Termoli, Italia (16232): visibility: 10.10.2018 04:00:00 - 16.10.2018 04:00:00 (CEST)Termoli, Italia (16232): ore di luce: 10.10.2018 04:00:00 - 16.10.2018 04:00:00 (CEST)
Data & Tempo tt [°C] td [°C] ff [km/h] ff [kn] dd ppp [hPa] vv [km] sd [min]
16.10.2018 04:00:00 - - - - - - - -
16.10.2018 03:00:00 - - - - - - - -
16.10.2018 02:00:00 19,2 17,4 8 4 ONO 1018,4 9 -
16.10.2018 01:00:00 - - - - - - - -
16.10.2018 00:00:00 - - - - - - - -
15.10.2018 23:00:00 19,2 17,5 13 7 ONO 1018,5 8 -
15.10.2018 22:00:00 - - - - - - - -
15.10.2018 21:00:00 - - - - - - - -
15.10.2018 20:00:00 19,8 17,9 18 10 NO 1018,7 8 0
15.10.2018 19:00:00 - - - - - - - -
15.10.2018 18:00:00 - - - - - - - -
15.10.2018 17:00:00 19,4 17,4 21 11 NO 1017,7 4,0 0
15.10.2018 16:00:00 - - - - - - - -
15.10.2018 15:00:00 - - - - - - - -
15.10.2018 14:00:00 19,0 17,8 21 11 ONO 1017,9 6 0
15.10.2018 13:00:00 - - - - - - - -
15.10.2018 12:00:00 - - - - - - - -
15.10.2018 11:00:00 18,6 18,0 16 9 NO 1018,4 5 0
15.10.2018 10:00:00 - - - - - - - -
15.10.2018 09:00:00 - - - - - - - -
15.10.2018 08:00:00 18,4 17,4 15 8 ONO 1017,5 6 -
15.10.2018 07:00:00 - - - - - - - -
15.10.2018 06:00:00 - - - - - - - -
15.10.2018 05:00:00 19,0 17,5 9 5 SO 1017,6 6 -
15.10.2018 04:00:00 - - - - - - - -
15.10.2018 03:00:00 - - - - - - - -
15.10.2018 02:00:00 19,6 16,8 4 2 S 1017,8 7 -
15.10.2018 01:00:00 - - - - - - - -
15.10.2018 00:00:00 - - - - - - - -
14.10.2018 23:00:00 20,0 17,0 4 2 SSO 1018,2 7 -
14.10.2018 22:00:00 - - - - - - - -
14.10.2018 21:00:00 - - - - - - - -
14.10.2018 20:00:00 20,2 16,8 11 6 E 1017,9 8 -
14.10.2018 19:00:00 - - - - - - - -
14.10.2018 18:00:00 - - - - - - - -
14.10.2018 17:00:00 22,2 15,8 15 8 E 1017,8 8 42
14.10.2018 16:00:00 - - - - - - - -
14.10.2018 15:00:00 - - - - - - - -
14.10.2018 14:00:00 22,6 15,2 9 5 NE 1019,0 8 60
14.10.2018 13:00:00 - - - - - - - -
14.10.2018 12:00:00 - - - - - - - -
14.10.2018 11:00:00 21,0 15,5 8 4 N 1020,2 8 36
14.10.2018 10:00:00 - - - - - - - -
14.10.2018 09:00:00 - - - - - - - -
14.10.2018 08:00:00 16,6 12,6 15 8 SO 1020,2 6 0
14.10.2018 07:00:00 - - - - - - - -
14.10.2018 06:00:00 - - - - - - - -
14.10.2018 05:00:00 18,8 16,0 13 7 OSO 1021,3 10 -
14.10.2018 04:00:00 - - - - - - - -
14.10.2018 03:00:00 - - - - - - - -
14.10.2018 02:00:00 18,0 16,3 15 8 O 1021,3 10 -
14.10.2018 01:00:00 - - - - - - - -
14.10.2018 00:00:00 - - - - - - - -
13.10.2018 23:00:00 19,0 15,5 15 8 O 1021,8 10 -
13.10.2018 22:00:00 - - - - - - - -
13.10.2018 21:00:00 - - - - - - - -
13.10.2018 20:00:00 20,4 17,4 16 9 NO 1021,5 7 -
13.10.2018 19:00:00 - - - - - - - -
13.10.2018 18:00:00 - - - - - - - -
13.10.2018 17:00:00 21,0 18,4 18 10 NO 1021,6 7 36
13.10.2018 16:00:00 - - - - - - - -
13.10.2018 15:00:00 - - - - - - - -
13.10.2018 14:00:00 21,4 16,4 22 12 NNO 1022,6 15 60
13.10.2018 13:00:00 - - - - - - - -
13.10.2018 12:00:00 - - - - - - - -
13.10.2018 11:00:00 21,4 12,3 18 10 NO 1023,3 18 60
13.10.2018 10:00:00 - - - - - - - -
13.10.2018 09:00:00 - - - - - - - -
13.10.2018 08:00:00 18,2 10,1 15 8 ONO 1023,3 12 0
13.10.2018 07:00:00 - - - - - - - -
13.10.2018 06:00:00 - - - - - - - -
13.10.2018 05:00:00 18,0 15,2 22 12 O 1023,8 10 -
13.10.2018 04:00:00 - - - - - - - -
13.10.2018 03:00:00 - - - - - - - -
13.10.2018 02:00:00 18,2 15,3 18 10 O 1024,3 10 -
13.10.2018 01:00:00 - - - - - - - -
13.10.2018 00:00:00 - - - - - - - -
12.10.2018 23:00:00 18,8 16,6 26 14 O 1024,4 10 -
12.10.2018 22:00:00 - - - - - - - -
12.10.2018 21:00:00 - - - - - - - -
12.10.2018 20:00:00 20,2 17,6 16 9 NO 1024,2 12 -
12.10.2018 19:00:00 - - - - - - - -
12.10.2018 18:00:00 - - - - - - - -
12.10.2018 17:00:00 21,4 17,0 16 9 NNO 1024,0 15 60
12.10.2018 16:00:00 - - - - - - - -
12.10.2018 15:00:00 - - - - - - - -
12.10.2018 14:00:00 22,6 17,3 24 13 NNO 1024,6 15 60
12.10.2018 13:00:00 - - - - - - - -
12.10.2018 12:00:00 - - - - - - - -
12.10.2018 11:00:00 21,6 16,8 21 11 NNO 1024,3 10 48
12.10.2018 10:00:00 - - - - - - - -
12.10.2018 09:00:00 - - - - - - - -
12.10.2018 08:00:00 19,8 17,8 9 5 ONO 1023,1 7 -
12.10.2018 07:00:00 - - - - - - - -
12.10.2018 06:00:00 - - - - - - - -
12.10.2018 05:00:00 20,6 18,2 13 7 NNO 1021,5 10 -
12.10.2018 04:00:00 - - - - - - - -
12.10.2018 03:00:00 - - - - - - - -
12.10.2018 02:00:00 20,4 20,1 16 9 O 1021,2 10 -
12.10.2018 01:00:00 - - - - - - - -
12.10.2018 00:00:00 - - - - - - - -
11.10.2018 23:00:00 21,2 20,7 8 4 O 1020,9 9 -
11.10.2018 22:00:00 - - - - - - - -
11.10.2018 21:00:00 - - - - - - - -
11.10.2018 20:00:00 21,2 20,0 5 3 SE 1020,0 8 -
11.10.2018 19:00:00 - - - - - - - -
11.10.2018 18:00:00 - - - - - - - -
11.10.2018 17:00:00 21,2 20,7 24 13 E 1019,2 8 0
11.10.2018 16:00:00 - - - - - - - -
11.10.2018 15:00:00 - - - - - - - -
11.10.2018 14:00:00 22,2 18,6 21 11 E 1019,3 10 6
11.10.2018 13:00:00 - - - - - - - -
11.10.2018 12:00:00 - - - - - - - -
11.10.2018 11:00:00 22,6 15,0 16 9 SSE 1020,6 10 60
11.10.2018 10:00:00 - - - - - - - -
11.10.2018 09:00:00 - - - - - - - -
11.10.2018 08:00:00 18,0 16,3 8 4 SSE 1020,2 10 0
11.10.2018 07:00:00 - - - - - - - -
11.10.2018 06:00:00 - - - - - - - -
11.10.2018 05:00:00 18,2 16,9 4 2 SSE 1020,3 10 -
11.10.2018 04:00:00 - - - - - - - -
11.10.2018 03:00:00 - - - - - - - -
11.10.2018 02:00:00 18,6 16,9 4 2 S 1020,3 10 -
11.10.2018 01:00:00 - - - - - - - -
11.10.2018 00:00:00 - - - - - - - -
10.10.2018 23:00:00 19,4 18,6 4 2 SE 1021,0 8 -
10.10.2018 22:00:00 - - - - - - - -
10.10.2018 21:00:00 - - - - - - - -
10.10.2018 20:00:00 20,4 19,4 4 2 SSO 1020,7 12 0
10.10.2018 19:00:00 - - - - - - - -
10.10.2018 18:00:00 - - - - - - - -
10.10.2018 17:00:00 23,4 18,9 5 3 ENE 1020,7 20 60
10.10.2018 16:00:00 - - - - - - - -
10.10.2018 15:00:00 - - - - - - - -
10.10.2018 14:00:00 23,2 18,3 9 5 NNE 1021,9 20 60
10.10.2018 13:00:00 - - - - - - - -
10.10.2018 12:00:00 - - - - - - - -
10.10.2018 11:00:00 22,6 16,4 8 4 NO 1021,3 25 60
10.10.2018 10:00:00 - - - - - - - -
10.10.2018 09:00:00 - - - - - - - -
10.10.2018 08:00:00 19,0 15,3 9 5 O 1020,9 15 -
10.10.2018 07:00:00 - - - - - - - -
10.10.2018 06:00:00 - - - - - - - -
10.10.2018 05:00:00 19,0 16,0 15 8 O 1020,8 15 -
10.10.2018 04:00:00 - - - - - - - -

tt = Temperatura
td = dewpoint
ff = velocità del vento
dd = direzione del vento
ppp = reduced air pressure
vv = visibility
sd = ore di luce

Stazioni seguenti

WeatherPro
AMSI
MeteoEarth